Simultaneous Nadir Overpasses (SNOs) Predictions

Prediction of SNOs between LANDSAT-8 and METOP-A Satellite Orbit:

Table of predicted SNOs for the next 14.0 days since TLE Epoch: 3/29/2019
Index Date (LANDSAT-8) Time (LANDSAT-8) Lat,Lon (LANDSAT-8) SZA (LANDSAT-8 ) Date (METOP-A) Time (METOP-A) Lat,Lon (METOP-A) SZA (METOP-A ) Distance(km) Time Diff (sec)
1 03/29/2019 23:47:12 -81.46, 48.62 99.70 03/29/2019 23:46:23 -81.45, 48.49 99.73 2.17 49
2 03/30/2019 00:36:38 81.46,-143.62 80.31 03/30/2019 00:37:02 81.46,-143.47 80.34 2.51 24
3 04/01/2019 19:21:26 -81.45, 114.89 100.78 04/01/2019 19:20:36 -81.45, 114.85 100.80 0.80 50
4 04/01/2019 20:10:52 81.45, -77.37 79.23 04/01/2019 20:11:16 81.45, -77.56 79.22 3.12 24
5 04/04/2019 14:55:40 -81.46,-178.47 101.80 04/04/2019 14:54:49 -81.45,-178.40 101.82 1.30 51
6 04/04/2019 15:45:06 81.46, -10.77 78.20 04/04/2019 15:45:29 81.46, -10.85 78.19 1.65 23
7 04/07/2019 10:29:55 -81.45,-112.26 102.88 04/07/2019 10:29:04 -81.45,-112.46 102.92 3.21 51
8 04/07/2019 11:19:21 81.45, 55.42 77.12 04/07/2019 11:19:43 81.46, 55.44 77.14 0.66 22
9 04/10/2019 06:04:08 -81.45, -45.70 103.88 04/10/2019 06:03:16 -81.45, -45.72 103.91 0.45 52




NCC Satellite Simultaneous Nadir Overpasses (SNOs) Prediction Service
